Wind_Speed
27 27 26 26 26 26 27 28 28 28 28 28 29 29 30 30 30 31 32 32 32 33 33 34 34 34 35 35 35 36 37 37 38 38 39 40 40 40 41 41 42 42 43
28 28 27 27 27 28 28 28 29 29 30 30 30 31 31 31 32 32 33 34 34 35 35 35 36 36 36 37 37 38 38 39 40 41 41 41 42 42 43 43 44 44 45
29 29 28 28 28 29 30 30 30 30 31 31 32 32 32 33 33 33 34 35 35 36 37 37 37 38 38 38 39 39 40 41 41 42 42 43 44 44 44 45 45 45 46
30 30 29 29 30 30 31 31 31 32 32 33 33 33 33 34 35 35 35 36 36 37 38 38 38 39 39 39 40 41 41 42 42 43 44 45 45 46 46 46 47 47 48
31 31 30 30 31 31 32 32 32 33 33 34 34 34 35 35 36 36 36 37 37 38 39 40 40 40 40 41 42 43 43 43 44 45 45 46 47 47 48 48 49 49 50
32 32 31 32 32 32 33 33 33 34 34 34 34 35 35 36 36 37 37 38 38 39 39 40 41 41 42 43 44 45 45 45 46 47 47 47 48 49 50 50 51 51 51
33 33 33 33 34 33 34 34 34 35 35 35 35 35 36 36 37 38 38 39 39 40 40 41 42 43 43 44 46 46 47 48 48 49 49 49 50 50 51 52 52 52 52
34 34 34 35 34 35 35 35 35 36 36 36 36 37 37 37 37 38 39 40 40 41 42 43 44 44 45 46 47 48 48 49 50 50 51 52 52 53 53 53 54 54 54
36 35 35 35 35 35 35 35 36 36 36 37 37 38 38 38 38 38 40 41 42 43 43 44 45 46 47 48 48 49 50 51 52 53 53 53 54 54 54 55 55 55 56
36 35 35 35 36 35 36 36 36 37 37 38 38 39 40 40 41 40 41 42 43 44 45 45 46 47 49 49 50 51 52 53 54 54 54 54 54 55 55 56 56 57 57
37 36 36 36 36 36 36 36 37 38 39 39 39 40 40 41 42 42 42 42 43 44 45 46 47 48 49 50 51 52 53 53 53 54 54 54 55 56 56 57 57 58 58
37 37 36 37 37 37 37 37 39 39 39 40 40 41 41 42 43 43 43 43 43 43 44 46 47 48 49 50 51 51 52 52 53 54 54 55 56 57 57 58 58 58 58
38 37 37 37 37 37 38 38 39 39 40 40 41 42 42 43 43 43 44 43 43 43 44 45 46 48 49 49 50 50 51 52 53 53 53 54 56 57 58 58 58 58 58
38 38 38 38 37 37 38 39 39 40 40 41 41 42 42 42 43 43 44 44 43 43 44 45 46 47 48 48 49 50 51 52 53 53 54 55 55 56 57 58 58 58 56
38 38 39 39 38 38 39 39 40 40 41 41 41 41 41 42 42 43 44 44 45 44 44 45 46 47 47 48 50 50 51 52 52 53 54 55 55 56 56 56 55 54 51
40 39 39 39 39 40 40 40 40 40 40 41 40 40 41 41 42 42 43 44 45 45 45 46 47 47 47 48 49 50 51 51 52 53 54 55 55 55 54 53 51 48 47
40 40 40 40 40 40 40 40 40 40 40 40 40 40 40 40 41 42 43 44 45 46 46 46 47 47 47 48 48 49 50 51 51 52 53 53 53 52 51 48 46 45 43
41 40 40 40 40 40 40 40 40 40 40 40 39 39 40 40 41 42 43 44 46 47 47 46 46 47 47 47 48 49 49 50 51 52 52 51 50 48 47 45 44 42 41
41 41 41 40 40 39 39 40 39 39 40 40 39 39 40 41 42 43 44 45 46 47 47 47 47 47 47 48 49 49 49 50 51 51 50 49 47 45 43 42 41 41 40
42 41 41 41 40 39 39 39 39 39 39 39 40 40 41 42 43 43 44 45 46 47 47 47 47 47 48 48 49 49 49 50 50 49 47 45 44 42 41 40 40 39 39
41 41 41 40 40 39 39 38 38 38 38 39 40 41 41 42 43 44 45 47 47 47 47 47 47 48 49 49 49 49 50 49 47 45 42 42 41 41 40 39 38 37 36
39 39 39 39 39 38 38 38 38 38 39 39 40 41 42 43 44 45 47 47 47 47 47 48 48 49 49 49 49 49 49 46 43 41 40 39 39 39 39 38 37 36 35
38 37 38 38 38 38 38 39 38 39 39 40 40 41 42 43 44 45 46 46 47 47 47 48 48 48 48 48 48 47 45 42 40 39 38 37 38 38 36 36 35 34 33
37 37 37 37 38 38 38 39 39 39 40 41 41 42 43 44 44 45 45 45 46 46 46 47 47 47 46 46 45 43 40 38 38 38 38 37 36 35 34 34 32 31 30
37 37 37 37 37 38 38 39 39 40 40 41 41 42 43 44 45 45 45 45 45 45 45 45 46 45 44 43 41 39 37 36 36 36 36 36 34 32 32 32 30 29 28
36 36 36 36 37 37 38 38 39 40 41 41 42 42 43 44 44 44 45 45 44 44 43 43 43 42 41 39 37 36 35 36 36 35 34 34 32 30 28 28 28 26 26
Wind_Direction
266 268 270 272 276 278 281 283 284 286 287 288 289 290 290 290 291 292 292 292 291 292 292 292 293 293 293 293 292 293 293 293 293 293 292 292 291 291 290 289 288 288 288
266 267 270 272 275 278 280 284 285 286 287 288 290 290 291 291 292 292 292 292 291 291 292 292 292 292 292 292 292 292 292 293 293 293 293 293 292 291 291 290 289 289 288
265 267 269 273 275 278 280 283 285 287 288 289 290 290 291 292 292 292 293 292 292 292 292 292 292 291 292 292 292 292 293 293 293 293 294 293 293 292 291 291 291 290 289
264 267 269 272 275 278 280 283 285 287 289 289 290 290 291 292 292 293 293 293 292 292 292 292 292 292 292 292 292 293 293 294 294 294 294 293 293 292 292 292 291 290 289
264 266 269 272 275 278 280 283 285 287 289 290 290 291 291 292 293 293 294 293 293 293 293 292 292 292 292 292 292 293 293 293 294 294 294 294 293 293 293 292 291 291 290
265 268 270 272 275 278 281 282 285 288 289 290 290 291 291 291 292 293 293 293 293 293 293 292 292 292 292 292 292 292 292 293 294 294 294 294 294 293 293 292 292 291 290
265 268 270 272 274 278 280 282 285 288 289 290 290 291 291 292 293 294 294 294 293 293 293 293 293 293 293 293 293 293 293 293 294 294 294 294 294 294 293 293 293 292 291
265 268 270 273 275 277 280 282 284 286 289 290 290 290 292 293 294 294 294 294 294 294 294 293 293 293 294 293 293 293 293 294 294 294 295 295 294 294 294 294 293 292 291
265 267 270 273 275 277 279 282 284 286 288 289 290 291 292 293 294 294 295 295 295 295 295 294 294 294 295 295 295 295 295 295 295 295 295 295 294 294 294 295 295 294 292
266 267 269 272 275 277 280 282 283 286 288 289 290 291 292 293 294 295 296 297 297 297 296 296 295 295 296 296 296 296 296 296 296 295 295 295 295 295 296 296 296 295 293
265 267 269 272 274 277 279 281 284 285 287 289 290 291 292 294 295 296 297 298 298 299 299 298 297 297 297 297 298 298 298 298 298 297 297 296 296 296 296 297 297 296 294
264 266 269 271 274 276 279 281 284 286 287 288 289 291 293 294 296 297 298 298 299 299 300 300 299 298 298 298 299 300 301 301 300 300 298 297 296 296 296 297 297 296 296
263 265 268 271 274 276 279 282 283 285 286 288 290 292 293 295 296 297 298 299 300 300 300 301 301 301 301 300 301 301 301 302 302 301 301 299 298 297 297 297 297 297 296
263 265 268 271 274 277 279 281 283 285 286 288 290 292 294 295 296 298 299 300 301 301 301 302 303 303 302 302 302 302 303 303 303 303 302 301 301 299 299 298 298 298 298
262 265 268 271 274 277 279 281 283 285 287 288 290 292 294 296 297 299 301 302 303 303 303 304 304 304 303 303 303 304 305 304 304 304 304 303 303 302 301 300 300 300 299
263 265 268 270 273 276 279 281 283 284 287 289 290 291 294 296 298 300 301 303 304 305 305 305 305 305 305 305 306 307 307 306 306 306 306 305 304 304 303 302 302 301 300
262 265 268 270 273 276 279 281 282 284 286 288 289 291 293 296 298 300 302 303 304 305 306 306 306 307 307 307 308 309 309 308 308 308 307 306 306 305 305 304 303 302 301
262 265 268 271 273 276 279 280 282 284 286 288 289 291 293 296 298 300 301 303 304 305 306 306 306 307 307 308 308 309 310 310 310 310 310 308 307 307 307 306 304 304 303
262 265 268 270 273 275 278 280 281 283 285 287 288 290 293 296 298 300 301 303 305 306 306 306 307 307 307 308 308 310 311 311 311 312 311 310 310 309 308 307 306 305 305
262 264 267 269 271 274 277 279 280 282 285 287 288 290 293 295 298 299 301 303 305 306 306 306 307 307 307 307 308 310 311 311 311 312 311 311 312 312 311 309 309 309 309
261 263 266 269 271 273 276 279 281 283 284 287 289 291 293 295 297 299 301 303 304 305 306 307 306 306 306 307 308 309 310 312 312 312 312 312 313 313 312 310 310 311 312
261 263 266 268 270 272 275 278 281 282 284 286 289 292 294 295 298 300 302 303 304 305 306 307 307 307 308 308 309 310 312 313 312 312 313 314 314 315 314 312 312 312 312
260 262 265 267 270 272 275 278 280 281 283 286 289 291 293 296 298 300 302 303 305 306 307 307 308 309 309 309 310 312 313 314 315 315 315 316 316 316 315 315 314 314 314
259 262 264 267 269 272 275 277 280 281 283 286 289 291 294 297 299 301 302 303 305 306 307 307 308 309 310 311 312 313 314 315 317 318 318 318 317 317 317 317 317 317 317
259 262 264 267 270 272 275 278 280 282 284 287 289 291 294 297 299 300 302 303 305 306 306 307 308 309 310 312 313 314 315 316 318 318 318 318 319 319 318 319 319 320 321
259 261 265 268 271 274 277 280 281 283 285 287 290 292 295 297 299 301 302 303 305 305 306 307 308 309 310 311 312 314 316 317 318 319 319 320 320 320 320 320 321 321 323
Height
5828 5829 5829 5829 5829 5829 5828 5828 5827 5826 5826 5824 5823 5822 5821 5819 5818 5816 5814 5812 5810 5808 5806 5804 5801 5799 5797 5795 5792 5790 5788 5786 5783 5781 5778 5776 5773 5771 5768 5766 5763 5761 5759
5823 5823 5824 5824 5824 5823 5823 5823 5822 5821 5820 5819 5817 5816 5814 5813 5811 5809 5807 5805 5803 5801 5798 5796 5794 5791 5789 5787 5784 5782 5779 5777 5774 5771 5769 5766 5764 5761 5758 5755 5753 5750 5747
5817 5818 5818 5818 5818 5818 5818 5817 5816 5815 5814 5813 5811 5810 5808 5806 5804 5802 5800 5798 5795 5793 5791 5788 5786 5783 5781 5778 5775 5773 5770 5767 5765 5762 5759 5756 5753 5750 5747 5744 5741 5738 5736
5811 5812 5812 5812 5812 5812 5812 5811 5810 5809 5808 5806 5805 5803 5801 5799 5797 5795 5792 5790 5787 5785 5782 5780 5777 5774 5772 5769 5766 5763 5761 5758 5755 5752 5748 5745 5742 5739 5736 5732 5729 5726 5723
5805 5805 5806 5806 5806 5806 5805 5805 5804 5803 5801 5800 5798 5796 5794 5792 5790 5787 5785 5782 5779 5776 5774 5771 5768 5765 5762 5760 5757 5754 5751 5748 5744 5741 5738 5734 5731 5727 5723 5720 5717 5713 5710
5798 5799 5799 5799 5799 5799 5798 5798 5797 5796 5794 5793 5791 5789 5786 5784 5782 5779 5777 5774 5771 5768 5765 5761 5759 5756 5753 5750 5747 5743 5740 5737 5733 5730 5726 5722 5718 5715 5711 5707 5703 5700 5696
5791 5792 5792 5792 5792 5792 5791 5791 5790 5788 5787 5785 5784 5781 5779 5777 5774 5771 5768 5765 5762 5759 5756 5752 5749 5746 5743 5739 5736 5733 5729 5725 5722 5718 5714 5710 5706 5702 5698 5694 5690 5686 5682
5784 5785 5785 5785 5785 5785 5784 5783 5782 5781 5779 5777 5775 5773 5772 5770 5767 5763 5760 5756 5753 5750 5746 5743 5739 5736 5732 5729 5725 5721 5717 5714 5710 5706 5702 5697 5693 5688 5684 5680 5676 5671 5667
5776 5777 5777 5777 5777 5777 5776 5775 5774 5773 5771 5769 5766 5764 5762 5760 5758 5756 5751 5747 5744 5740 5736 5733 5729 5725 5721 5717 5713 5709 5705 5701 5697 5693 5688 5683 5679 5674 5670 5665 5661 5656 5652
5768 5769 5769 5770 5770 5769 5768 5768 5766 5765 5763 5761 5758 5755 5753 5750 5748 5746 5743 5738 5734 5730 5726 5722 5718 5714 5710 5706 5701 5697 5693 5688 5684 5679 5674 5669 5664 5660 5655 5651 5646 5641 5636
5761 5761 5762 5762 5761 5761 5760 5759 5758 5757 5755 5752 5750 5747 5744 5741 5737 5735 5733 5729 5725 5720 5715 5711 5707 5703 5699 5694 5690 5685 5680 5675 5670 5665 5660 5655 5650 5646 5641 5636 5630 5625 5620
5752 5753 5753 5753 5753 5753 5752 5751 5750 5748 5746 5744 5741 5738 5735 5732 5728 5725 5722 5719 5715 5711 5705 5701 5697 5692 5688 5683 5678 5673 5668 5662 5657 5652 5646 5641 5636 5631 5626 5621 5615 5610 5604
5744 5745 5745 5745 5745 5744 5744 5742 5741 5739 5737 5735 5732 5729 5726 5722 5719 5715 5712 5709 5705 5701 5697 5692 5686 5681 5677 5672 5667 5662 5656 5650 5645 5639 5633 5627 5622 5616 5611 5605 5600 5594 5588
5735 5736 5736 5736 5736 5736 5735 5734 5732 5730 5728 5726 5723 5720 5717 5713 5710 5706 5702 5699 5696 5693 5688 5683 5677 5671 5666 5661 5656 5651 5645 5638 5632 5626 5620 5613 5607 5601 5596 5590 5584 5578 5572
5727 5727 5728 5728 5727 5727 5726 5725 5724 5722 5720 5717 5714 5711 5708 5705 5701 5697 5693 5688 5685 5682 5679 5674 5668 5662 5656 5651 5645 5639 5633 5626 5620 5613 5606 5600 5593 5587 5581 5574 5568 5562 5557
5717 5718 5718 5719 5719 5718 5717 5716 5715 5713 5711 5708 5706 5703 5700 5696 5692 5688 5684 5679 5675 5671 5667 5663 5657 5652 5646 5640 5634 5628 5622 5615 5608 5601 5594 5587 5580 5573 5566 5560 5554 5549 5543
5708 5709 5709 5709 5709 5709 5708 5707 5705 5704 5702 5699 5697 5694 5691 5688 5684 5680 5675 5671 5666 5661 5657 5653 5647 5641 5636 5630 5624 5618 5611 5604 5597 5589 5581 5574 5567 5560 5553 5547 5542 5536 5531
5698 5699 5700 5700 5700 5700 5699 5697 5696 5695 5693 5690 5688 5685 5682 5679 5675 5671 5667 5662 5657 5652 5647 5643 5638 5632 5626 5620 5614 5608 5600 5593 5585 5578 5569 5562 5555 5548 5541 5536 5530 5525 5520
5689 5690 5690 5691 5691 5690 5689 5688 5687 5685 5684 5681 5679 5677 5674 5670 5666 5662 5658 5653 5648 5642 5637 5632 5627 5622 5616 5610 5604 5598 5590 5582 5574 5566 5558 5551 5544 5537 5531 5525 5520 5515 5510
5679 5680 5681 5681 5681 5681 5680 5679 5678 5676 5674 5672 5670 5667 5665 5661 5657 5653 5649 5644 5639 5633 5627 5622 5617 5612 5606 5599 5593 5587 5581 5573 5565 5556 5548 5541 5535 5528 5522 5516 5511 5506 5500
5669 5670 5671 5671 5671 5671 5670 5669 5668 5667 5665 5663 5661 5658 5655 5652 5648 5643 5639 5634 5629 5623 5618 5612 5607 5601 5596 5589 5583 5577 5570 5563 5555 5547 5541 5534 5527 5521 5514 5508 5503 5497 5492
5659 5660 5661 5662 5662 5662 5661 5660 5659 5657 5656 5654 5652 5649 5646 5642 5638 5634 5629 5624 5619 5613 5608 5602 5596 5590 5585 5578 5572 5565 5558 5553 5547 5541 5533 5527 5519 5513 5506 5500 5495 5490 5484
5649 5651 5652 5652 5652 5652 5651 5650 5649 5648 5646 5644 5642 5640 5637 5633 5629 5625 5620 5614 5609 5602 5597 5592 5586 5580 5574 5568 5562 5556 5549 5542 5536 5530 5524 5519 5513 5506 5499 5493 5488 5483 5478
5640 5641 5642 5642 5643 5642 5642 5641 5640 5638 5637 5635 5633 5630 5627 5623 5619 5615 5610 5605 5599 5594 5588 5582 5576 5570 5564 5557 5551 5546 5540 5535 5529 5522 5516 5511 5506 5500 5493 5487 5481 5476 5472
5630 5631 5632 5633 5633 5633 5632 5631 5630 5629 5627 5625 5623 5620 5617 5613 5609 5605 5600 5596 5590 5584 5578 5572 5566 5560 5554 5548 5543 5538 5532 5527 5523 5517 5510 5504 5499 5494 5488 5482 5477 5471 5466
5621 5622 5623 5623 5624 5623 5623 5622 5621 5619 5618 5616 5613 5610 5607 5603 5598 5594 5590 5585 5581 5576 5570 5564 5558 5552 5546 5541 5535 5530 5525 5520 5515 5510 5504 5498 5492 5487 5483 5478 5472 5467 5462